Location: Arboyeti
(42.1122°N, 44.6017°E)
Time: 17:05:18
(UTC+00:00)

USA 245 - Pass Details

Date: 19 April 2021
Orbit: 268 x 984 km, 97.9° (Epoch: 02 May)

Event Time Altitude Azimuth Distance (km) Brightness Sun altitude
Exits shadow 17:29:28 26° 70° (ENE) 1,058 4.4 -17.9°
Drops below altitude 10° 17:32:18 10° 15° (NNE) 1,619 6.0 -18.3°
Sets 17:34:19 0° 2° (N) 2,383 7.1 -18.6°
